Weather History for KIMT - September, 2013

Change the Weather History Date:

Friday, September 13, 2013

  Actual Average Record
Temperature  
Mean Temperature 50 °F -  
Max Temperature 62 °F 69 °F 89 °F (1939)
Min Temperature 39 °F 47 °F 26 °F (1943)
Degree Days  
Heating Degree Days 15    
Moisture  
Dew Point 40 °F    
Average Humidity 70    
Maximum Humidity 93    
Minimum Humidity 46    
Precipitation  
Precipitation 0.00 in - - ()
Sea Level Pressure  
Sea Level Pressure 30.21 in    
Wind  
Wind Speed 7 mph (North)    
Max Wind Speed 14 mph    
Max Gust Speed 20 mph    
Visibility 10 miles    
Events      
Averages and records for this station are not official NWS values.
T = Trace of Precipitation, MM = Missing Value Source: NWS Daily Summary

Daily Weather History Graph

Daily Weather History Graph

Search for Another Location

Airport or City:

Trip Planner

Search our weather history database for the weather conditions in past years. The results will help you decide how hot, cold, wet, or windy it might be!

Date:

Astronomy

Sep. 13, 2013 Rise Set
Actual Time 6:28 AM CDT 7:07 PM CDT
Civil Twilight 5:58 AM CDT 7:37 PM CDT
Nautical Twilight 5:22 AM CDT 8:12 PM CDT
Astronomical Twilight 4:45 AM CDT 8:49 PM CDT
Moon 3:09 PM CDT (9/13) No Moon Set
Length of Visible Light 13h 38m
Length of Day
12h 38m
First Quarter, 61% of the Moon is Illuminated
Sep 13
First Quarter
Sep 19
Full
Sep 26
Last Quarter
Oct 4
New
Oct 11
First Quarter

Hourly Weather History & Observations

Time (CDT) Temp. Windchill Dew Point Humidity Pressure Visibility Wind Dir Wind Speed Gust Speed Precip Events Conditions
12:54 AM 50.0 °F - 37.9 °F 63% 30.19 in 10.0 mi North 13.8 mph 19.6 mph N/A   Mostly Cloudy
1:54 AM 48.9 °F - 37.9 °F 66% 30.20 in 10.0 mi North 12.7 mph - N/A   Mostly Cloudy
2:54 AM 46.0 °F 41.9 °F 37.9 °F 73% 30.21 in 10.0 mi NNW 8.1 mph - N/A   Partly Cloudy
3:54 AM 42.1 °F 39.2 °F 37.0 °F 82% 30.22 in - NNE 4.6 mph - N/A   Clear
4:54 AM 39.9 °F 36.7 °F 37.0 °F 89% 30.23 in - NNW 4.6 mph - N/A   Clear
5:54 AM 41.0 °F 36.4 °F 37.9 °F 89% 30.24 in - NW 6.9 mph - N/A   Clear
6:54 AM 39.0 °F 35.7 °F 37.0 °F 93% 30.25 in - NNW 4.6 mph - N/A   Clear
7:54 AM 45.0 °F 41.8 °F 39.9 °F 82% 30.25 in - NW 5.8 mph - N/A   Clear
8:54 AM 50.0 °F - 39.0 °F 66% 30.26 in 10.0 mi North 11.5 mph - N/A   Clear
9:54 AM 53.1 °F - 39.9 °F 61% 30.26 in 10.0 mi North 8.1 mph - N/A   Clear
10:54 AM 55.9 °F - 39.9 °F 55% 30.25 in 10.0 mi North 8.1 mph 19.6 mph N/A   Mostly Cloudy
11:54 AM 57.9 °F - 39.0 °F 49% 30.25 in 10.0 mi Variable 6.9 mph - N/A   Clear
12:54 PM 59.0 °F - 39.9 °F 49% 30.23 in 10.0 mi NW 6.9 mph - N/A   Mostly Cloudy
1:54 PM 60.1 °F - 39.9 °F 47% 30.22 in 10.0 mi Variable 3.5 mph - N/A   Mostly Cloudy
2:54 PM 61.0 °F - 39.9 °F 46% 30.20 in 10.0 mi NE 4.6 mph - N/A   Mostly Cloudy
3:54 PM 61.0 °F - 41.0 °F 48% 30.19 in 10.0 mi North 6.9 mph - N/A   Overcast
4:54 PM 61.0 °F - 39.9 °F 46% 30.19 in 10.0 mi NNW 3.5 mph - N/A   Mostly Cloudy
5:54 PM 57.0 °F - 46.0 °F 67% 30.18 in 10.0 mi Calm Calm - N/A   Partly Cloudy
6:54 PM 55.0 °F - 46.0 °F 72% 30.18 in 10.0 mi Calm Calm - N/A   Clear
7:54 PM 48.9 °F - 44.1 °F 83% 30.18 in 10.0 mi Calm Calm - N/A   Clear
8:54 PM 46.0 °F - 44.1 °F 93% 30.17 in 10.0 mi Calm Calm - N/A   Clear
9:54 PM 44.1 °F - 41.0 °F 89% 30.17 in - Calm Calm - N/A   Clear
10:54 PM 46.9 °F - 41.0 °F 80% 30.15 in - SE 4.6 mph - N/A   Clear
11:54 PM 45.0 °F 43.5 °F 42.1 °F 90% 30.14 in - SE 3.5 mph - N/A   Clear